Regional Weather Roundup
Issued by NWS

Home | Current Version | Previous Version | Text Only | Print | Product List | Glossary Off
Versions: 1 2 3 4 5 6 7 8 9 10 11 12 13 14 15 16 17 18 19 20 21 22 23 24 25 26 27 28 29 30 31 32 33 34 35 36 37 38 39 40 41 42 43 44 45 46 47 48 49 50

000
ASUS45 KCYS 222010
RWRWY

WYOMING REGIONAL WEATHER ROUNDUP
NATIONAL WEATHER SERVICE CHEYENNE WY
100 PM MST WED NOV 22 2017

NOTE:  "FAIR" INDICATES FEW OR NO CLOUDS BELOW 12,000 FEET
WITH NO SIGNIFICANT WEATHER AND/OR OBSTRUCTIONS TO VISIBILITY.

WYZ001-222100-
YELLOWSTONE NATIONAL PARK

CITY           SKY/WX    TMP DP  RH WIND       PRES   REMARKS
LK YELLOWSTONE   N/A     39  38  96 VRB7G17   30.43S WCI  34
W YELLOWSTONE  NOT AVBL

$$
WYZ002>013-054>058-071-098>099-222100-
NORTHERN WYOMING

CITY           SKY/WX    TMP DP  RH WIND       PRES   REMARKS
JACKSON        LGT RAIN  49  41  74 SW7       30.41S
CODY           FAIR      60  39  45 W16G31    30.19F
GREYBULL       FAIR      51  34  52 S5        30.18F
WORLAND        FAIR      47  34  60 CALM      30.19S
SHERIDAN       CLOUDY    65  43  44 NW6       30.09S
BUFFALO        CLOUDY    63  35  35 N6        30.13F
GILLETTE       PTSUNNY   63  37  38 NW14      30.10S
HULETT         LGT RAIN  61  37  41 W14G22    30.09S
NEWCASTLE      FAIR      61  32  33 CALM      30.10F

$$
WYZ014>020-022>026-101>103-222100-
CENTRAL WYOMING

CITY           SKY/WX    TMP DP  RH WIND       PRES   REMARKS
BIG PINEY      CLOUDY    43  40  89 E5        30.42F
PINEDALE       CLOUDY    37  37 100 CALM      30.43F
DUBOIS         CLOUDY    52  37  58 NW18      30.34R
LANDER         FAIR      53  37  54 VRB5      30.22F
RIVERTON       FAIR      52  37  56 SW8       30.24F
CASPER         FAIR      56  37  49 SW18      30.22F
DOUGLAS        FAIR      63  39  41 W26G33    30.16S

$$
WYZ021-027>030-104>119-222100-
SOUTHERN WYOMING

CITY           SKY/WX    TMP DP  RH WIND       PRES   REMARKS
EVANSTON       FAIR      53  41  63 SW12      30.48F
KEMMERER       FAIR      46  37  71 SW8       30.46F
FORT BRIDGER   FAIR      55  42  60 W18G26    30.48F
ROCK SPRINGS   PTSUNNY   52  39  61 SW21G28   30.41F
DIXON          CLOUDY    52  37  57 SW10      30.43F
RAWLINS        FAIR      52  40  63 SW22G30   30.35F
SARATOGA       FAIR      50  37  62 W23       30.37R
LARAMIE        PTSUNNY   52  38  58 W32G45    30.30F
CHEYENNE       FAIR      61  38  42 W22G33    30.23F
TORRINGTON     FAIR      69  39  33 W20       30.11F
PINE BLUFFS    FAIR      63  36  36 NW24G33   30.19F

$$



USA.gov is the U.S. government's official web portal to all federal, state and local government web resources and services.